This is the latest recevied weather packets stored in our database for station/object W0BJ-1. If no packets are shown the sender has not sent any weather packets the latest 10 day(s).
| Time | Temp. | Humidity | Pressure | Rain* | Wind** | Luminosity | Snow |
|---|---|---|---|---|---|---|---|
| 1777293641 | 16.11° C | 92% | 1006.1 hPa | 0 mm | - | 37 W/m² | - |
| 1777292738 | 16.11° C | 92% | 1005.8 hPa | 0 mm | - | 26 W/m² | - |
| 1777291540 | 16.11° C | 92% | 1005.9 hPa | 0 mm | - | 7 W/m² | - |
| 1777291249 | 16.11° C | 92% | 1005.9 hPa | 0 mm | - | 7 W/m² | - |
| 1777289450 | 15.56° C | 92% | 1007 hPa | 0.25 mm | - | 0 W/m² | - |
| 1777286750 | 15.56° C | 92% | 1006.7 hPa | 0 mm | - | 0 W/m² | - |
| 1777285241 | 15.56° C | 91% | 1006.8 hPa | 0 mm | - | 0 W/m² | - |
| 1777284640 | 15.56° C | 91% | 1007.5 hPa | 0 mm | - | 0 W/m² | - |
| 1777284337 | 15.56° C | 91% | 1007.3 hPa | 0 mm | - | 0 W/m² | - |
| 1777283149 | 15.56° C | 91% | 1008 hPa | 0 mm | - | 0 W/m² | - |
| 1777282537 | 15.56° C | 91% | 1008.1 hPa | 0 mm | - | 0 W/m² | - |
| 1777282246 | 15.56° C | 91% | 1008.5 hPa | 0.25 mm | - | 0 W/m² | - |
| 1777278036 | 15.56° C | 90% | 1009.1 hPa | 3.05 mm | - | 0 W/m² | - |
| 1777277137 | 15.56° C | 90% | 1008.8 hPa | 4.06 mm | - | 0 W/m² | - |
| 1777276238 | 15.56° C | 90% | 1009.5 hPa | 4.06 mm | - | 0 W/m² | - |
| 1777275640 | 15.56° C | 90% | 1010.2 hPa | 4.06 mm | - | 0 W/m² | - |
| 1777274171 | 16.11° C | 90% | 1011.2 hPa | 3.56 mm | - | 0 W/m² | - |
| 1777272348 | 16.11° C | 89% | 1011.5 hPa | 2.03 mm | - | 0 W/m² | - |
| 1777268438 | 16.11° C | 88% | 1011.1 hPa | 0 mm | - | 0 W/m² | - |
| 1777266950 | 16.11° C | 88% | 1011 hPa | 1.02 mm | - | 0 W/m² | - |
| 1777265740 | 16.11° C | 87% | 1011.3 hPa | 1.52 mm | - | 0 W/m² | - |
| 1777263039 | 17.78° C | 79% | 1011.9 hPa | 0.51 mm | - | 0 W/m² | - |
| 1777260941 | 19.44° C | 71% | 1011.9 hPa | 0 mm | - | 0 W/m² | - |
| 1777259753 | 19.44° C | 67% | 1012.2 hPa | 0 mm | - | 0 W/m² | - |
| 1777257052 | 20° C | 61% | 1011.7 hPa | 0 mm | - | 0 W/m² | - |
* Rain latest hour (hover to see other rain measurements)
** Current wind speed in m/s (hover to see current wind gust speed)